Location: Broek
(53.2737°N, 5.9967°E)
Time: 22:39:36
(UTC+00:00)

Cosmos 1680 Rocket - Pass Details

Date: 10 October 2024
Orbit: 757 x 778 km, 74.1° (Epoch: 09 November)

Event Time Altitude Azimuth Distance (km) Brightness Sun altitude
Rises 18:14:08 0° 217° (SW) 3,251 7.2 -13.3°
Reaches altitude 10° 18:16:33 10° 221° (SW) 2,328 6.5 -13.7°
Maximum altitude 18:21:47 60° 301° (WNW) 895 4.1 -14.4°
Drops below altitude 10° 18:27:03 10° 21° (NNE) 2,341 5.9 -15.2°
Sets 18:29:29 0° 25° (NNE) 3,271 6.6 -15.6°
